Wind_Speed
12 5 10 13 8 4 5 5 5 0 3 4 14 18 21 22 22 20 19 19 23 25 28 22 25 24 24 27 31 32 32 33 34 34 34 33 33 30 30 28 26 24 24 24
6 18 23 12 9 12 6 6 3 4 2 2 13 18 22 23 21 25 28 28 25 20 25 28 27 26 26 27 31 33 34 36 35 36 37 36 33 33 32 30 29 26 26 25
11 5 15 18 16 14 8 5 3 1 7 10 13 22 24 18 25 29 31 33 33 34 33 32 32 38 36 34 32 33 35 36 36 36 38 37 36 37 36 35 35 32 30 28
10 5 18 19 22 18 18 13 11 7 2 3 5 8 18 17 16 17 25 31 36 38 37 37 36 38 39 36 32 32 34 36 35 37 39 40 40 41 40 39 37 35 34 32
9 16 17 22 23 17 11 15 17 12 10 10 16 7 8 8 14 18 26 28 32 33 33 36 39 44 45 41 38 35 34 37 38 39 39 39 41 39 37 38 38 38 37 34
7 4 7 8 11 18 11 11 6 4 5 9 18 15 10 9 9 14 22 26 25 24 25 31 33 34 36 38 44 42 40 39 39 40 40 41 39 38 38 37 38 36 37 37
5 4 4 9 11 8 11 11 3 4 5 10 3 10 17 10 15 16 17 18 13 14 18 20 22 28 31 30 33 39 42 41 41 41 41 41 41 38 38 37 36 35 35 36
10 8 15 9 9 7 16 12 4 6 7 3 4 10 6 20 28 28 26 23 24 25 22 27 29 25 23 25 27 32 36 42 44 43 44 42 39 41 39 38 38 35 35 32
11 5 4 9 5 11 7 7 8 1 0 2 5 11 12 15 15 14 17 17 19 21 24 26 24 25 28 29 27 29 34 36 37 45 44 42 41 41 41 38 37 36 32 30
3 4 2 11 6 6 6 11 4 3 6 7 9 11 10 3 8 12 13 12 13 19 22 21 21 21 19 23 28 29 31 32 37 38 40 45 42 41 40 40 38 37 34 31
6 3 4 9 10 14 4 4 4 3 4 3 4 8 5 13 12 9 8 8 18 25 18 25 26 23 24 27 26 26 28 32 33 33 34 39 41 40 39 40 39 38 35 34
11 2 5 10 4 1 16 13 13 4 6 4 6 13 8 8 5 4 15 21 19 10 26 31 31 33 28 23 24 26 25 27 30 31 32 36 36 37 38 37 36 35 34 34
14 8 5 4 4 7 9 18 18 18 0 13 7 15 5 2 5 10 13 21 28 32 35 41 35 32 28 23 21 23 22 21 23 28 29 33 35 36 35 34 33 34 32 32
20 6 14 13 6 6 11 16 19 19 9 20 16 32 29 20 17 22 24 27 30 34 37 32 39 40 35 34 24 24 22 22 22 25 27 30 33 33 33 32 32 31 30 30
12 8 15 18 6 2 3 4 17 22 27 16 26 25 39 14 14 16 14 23 30 32 37 41 43 38 35 34 29 24 27 26 26 26 27 29 29 29 30 29 29 29 29 27
3 2 5 5 12 11 13 14 15 14 13 13 24 26 44 22 22 20 23 24 27 32 33 37 43 46 46 39 28 31 29 26 26 26 25 24 24 25 25 25 24 23 21 21
7 5 3 5 6 4 7 25 22 23 21 20 19 31 28 19 20 25 28 30 31 34 38 42 47 47 49 45 38 31 31 28 26 24 22 22 22 22 22 21 20 20 21 21
7 5 1 3 1 13 9 5 17 23 25 21 24 33 35 26 34 36 33 34 34 38 42 44 48 47 42 49 41 33 31 33 30 27 25 23 23 22 21 21 21 21 21 21
7 4 4 4 6 8 13 6 7 9 19 19 24 27 33 29 34 42 28 32 34 33 38 44 48 49 46 43 45 39 36 37 36 35 31 28 25 25 24 24 23 23 23 23
8 7 6 3 4 6 11 8 12 4 16 18 25 25 26 26 13 20 12 21 27 32 37 42 46 47 47 48 46 43 39 40 45 42 36 32 29 29 28 27 26 25 24 23
6 4 11 10 6 9 5 6 7 8 18 6 12 25 26 15 22 46 31 35 37 41 47 48 46 48 50 48 49 48 44 46 47 44 40 36 34 32 31 30 29 28 29 27
9 10 7 7 6 15 17 9 14 13 24 10 12 15 21 25 33 45 35 37 34 37 44 46 47 50 49 50 47 45 49 44 48 49 45 42 38 36 35 34 32 31 30 28
5 9 6 10 8 19 16 15 7 11 19 5 11 23 29 37 40 37 43 46 49 47 47 43 40 43 44 49 48 45 48 45 48 53 49 45 41 38 37 37 36 35 34 31
5 3 5 6 14 21 29 14 7 10 20 22 17 20 26 34 41 44 48 56 55 53 51 53 50 48 44 41 43 42 42 44 49 54 52 47 43 40 38 37 37 36 36 35
1 0 4 9 21 23 38 4 11 20 25 28 26 23 24 31 44 41 52 53 53 53 50 50 51 46 47 43 41 40 42 43 44 52 51 48 44 42 41 40 38 36 34 32
7 4 6 11 9 8 21 18 30 34 31 34 36 43 34 32 42 49 55 51 54 55 50 50 50 45 43 43 37 42 41 44 46 50 52 48 45 44 43 42 39 33 29 28
Wind_Direction
191 169 209 240 257 297 158 185 240 267 278 271 254 259 267 260 252 251 253 252 248 245 246 241 244 247 246 245 240 233 231 231 230 229 231 232 234 237 238 238 241 239 237 236
150 215 214 202 238 237 198 180 169 333 355 314 277 270 272 260 252 252 249 247 249 248 247 247 245 237 251 256 244 239 234 232 231 232 234 235 238 240 243 244 244 243 242 240
200 257 190 181 186 192 198 176 146 150 351 290 289 275 269 255 245 250 249 248 249 248 247 247 247 253 257 251 243 238 237 236 235 234 234 236 238 241 242 243 242 240 241 241
220 178 171 184 188 194 212 200 200 200 57 277 325 290 275 276 259 249 254 246 247 246 246 247 248 251 253 248 246 243 240 238 237 235 233 236 238 239 241 242 244 242 242 242
170 172 183 183 196 196 229 172 193 204 214 267 258 262 262 257 264 259 254 252 248 250 249 248 251 251 253 250 248 250 244 239 237 235 236 238 239 242 244 245 246 244 245 244
150 168 172 174 179 191 145 135 155 162 206 249 251 224 258 261 253 257 256 254 256 255 256 259 263 262 259 255 251 247 244 239 237 238 238 238 242 241 240 242 245 245 244 245
125 194 163 161 154 188 178 161 171 187 194 246 32 223 251 250 240 244 255 258 271 265 276 271 271 269 260 260 258 247 244 242 240 239 240 241 242 243 243 245 247 247 245 246
171 189 184 187 201 180 189 186 190 214 210 249 97 240 250 243 247 262 260 272 281 284 285 282 284 284 272 259 258 252 249 245 243 243 242 242 243 242 244 244 246 249 250 251
185 186 192 184 155 168 163 201 238 271 318 262 221 258 260 253 252 264 271 270 282 299 301 303 300 291 273 266 270 264 253 251 246 243 243 242 240 240 242 244 245 249 250 251
195 155 220 182 204 216 201 142 148 184 213 231 234 263 250 240 265 237 260 280 297 325 327 326 312 307 285 274 267 258 257 257 254 247 246 243 242 240 242 244 245 246 249 250
156 183 134 164 203 193 144 177 221 191 184 240 277 249 252 234 262 298 302 298 306 319 342 352 346 321 302 284 259 254 257 254 251 249 248 239 239 242 243 244 244 245 247 248
175 148 182 200 132 279 211 204 194 197 195 251 305 267 209 249 255 301 300 307 321 331 331 340 343 336 320 297 267 256 266 265 254 251 245 238 238 239 242 243 242 241 243 245
177 212 197 198 225 212 219 220 229 232 294 239 248 265 60 269 290 318 322 324 323 319 324 326 333 332 331 316 277 262 264 265 256 250 248 241 237 237 238 239 237 238 241 243
165 197 211 219 225 187 208 223 220 226 231 243 238 264 260 260 275 300 301 300 303 311 321 323 323 323 321 326 303 268 269 267 261 253 247 242 240 239 239 238 237 239 239 241
186 218 219 238 241 95 181 232 235 230 236 235 249 253 266 268 286 299 308 302 302 301 300 307 309 310 315 320 309 285 268 266 261 255 247 243 239 236 236 235 235 237 237 239
173 135 185 246 236 244 250 248 239 235 258 246 259 269 263 293 287 289 288 297 297 296 297 296 295 293 296 302 307 303 280 266 259 252 244 238 233 231 232 234 235 236 237 238
179 146 149 229 194 194 255 238 246 248 240 236 250 251 281 280 283 285 288 291 290 292 291 287 284 284 289 290 286 292 281 266 255 244 234 226 224 223 224 227 230 233 234 234
166 151 144 240 124 220 248 249 231 234 243 242 251 261 272 283 282 280 274 274 274 274 280 289 291 291 287 291 286 281 284 261 250 240 232 227 225 224 225 229 230 230 229 230
194 146 168 197 211 309 286 210 187 206 251 235 245 262 274 281 277 271 272 266 273 284 289 289 293 296 293 282 290 289 277 259 243 237 233 230 231 233 233 231 228 226 225 225
213 253 200 163 223 239 263 205 199 171 270 234 236 252 261 272 269 276 306 303 301 298 295 295 296 295 291 291 291 286 273 259 244 236 234 233 234 235 234 229 225 224 223 222
180 203 220 216 232 269 257 213 171 187 259 157 246 263 286 282 278 293 310 305 300 299 309 307 303 296 294 291 288 282 274 257 251 239 234 231 232 232 230 227 223 219 215 212
170 178 208 216 223 259 184 190 208 242 285 327 304 311 314 303 301 305 315 308 308 304 309 308 302 298 299 292 287 281 274 264 249 237 232 231 230 228 224 222 217 213 212 210
203 205 180 195 202 251 201 246 234 266 278 35 318 304 308 306 305 309 310 312 312 308 300 303 307 307 299 290 285 275 272 265 247 234 230 227 226 225 222 219 216 210 208 209
242 200 232 248 248 260 269 277 280 307 310 317 318 309 306 302 305 307 307 307 308 309 304 298 300 306 307 305 289 273 271 261 246 233 228 224 222 220 217 215 214 212 208 202
275 99 268 257 262 285 278 323 336 323 315 310 309 310 305 305 303 308 307 307 308 306 306 299 297 303 301 296 290 279 265 256 243 232 227 222 219 217 215 213 211 209 208 206
15 329 250 258 33 311 283 318 322 317 314 311 312 307 304 307 306 310 304 304 306 305 304 299 293 294 299 294 283 276 266 251 240 229 224 221 216 212 210 207 202 200 202 199
Height
1537 1544 1550 1548 1549 1552 1545 1548 1549 1550 1549 1548 1543 1539 1533 1535 1536 1535 1533 1532 1532 1532 1532 1533 1534 1536 1537 1537 1537 1538 1540 1543 1546 1546 1548 1549 1550 1554 1556 1558 1560 1561 1562 1564
1537 1531 1530 1544 1549 1550 1548 1549 1554 1550 1553 1551 1542 1535 1527 1530 1529 1528 1526 1526 1526 1526 1525 1526 1527 1528 1528 1529 1529 1530 1531 1534 1537 1539 1541 1543 1546 1548 1550 1553 1554 1557 1557 1558
1524 1521 1529 1538 1543 1546 1548 1551 1554 1557 1558 1553 1548 1531 1519 1516 1519 1518 1517 1517 1517 1517 1518 1520 1520 1520 1520 1520 1519 1522 1525 1526 1529 1531 1535 1537 1539 1540 1543 1544 1546 1548 1551 1552
1523 1522 1524 1530 1530 1537 1541 1542 1545 1549 1560 1561 1549 1535 1513 1510 1511 1510 1508 1507 1505 1506 1508 1509 1510 1510 1510 1511 1514 1516 1517 1519 1521 1523 1525 1526 1527 1529 1533 1537 1539 1541 1543 1545
1515 1520 1520 1523 1525 1531 1531 1536 1539 1545 1551 1553 1541 1550 1509 1506 1506 1500 1497 1496 1495 1496 1498 1499 1499 1501 1502 1504 1506 1508 1510 1511 1513 1515 1517 1518 1519 1522 1527 1530 1531 1534 1536 1538
1516 1518 1519 1519 1523 1528 1534 1537 1543 1544 1547 1548 1530 1533 1503 1496 1492 1487 1488 1488 1489 1490 1491 1491 1491 1492 1492 1494 1496 1499 1500 1501 1504 1506 1508 1509 1511 1515 1517 1520 1523 1526 1528 1530
1514 1517 1518 1519 1525 1531 1530 1532 1543 1545 1546 1528 1526 1523 1500 1486 1487 1483 1482 1482 1486 1486 1485 1485 1484 1483 1483 1485 1486 1489 1491 1493 1495 1498 1499 1501 1503 1507 1509 1513 1515 1519 1520 1521
1511 1520 1515 1514 1512 1519 1525 1524 1528 1533 1531 1514 1532 1514 1487 1479 1480 1479 1481 1483 1481 1481 1481 1480 1480 1479 1477 1478 1479 1481 1482 1484 1487 1488 1491 1494 1497 1499 1501 1504 1507 1510 1512 1514
1505 1508 1510 1512 1514 1515 1525 1528 1521 1533 1555 1529 1505 1494 1487 1479 1475 1477 1476 1478 1478 1478 1476 1475 1474 1472 1472 1473 1474 1474 1474 1476 1478 1480 1483 1486 1489 1491 1493 1497 1500 1502 1504 1506
1494 1504 1511 1511 1514 1514 1513 1519 1532 1538 1528 1521 1493 1493 1477 1476 1471 1471 1474 1475 1475 1476 1473 1470 1469 1468 1467 1465 1465 1467 1468 1468 1470 1472 1474 1477 1481 1483 1487 1489 1491 1493 1496 1498
1495 1500 1515 1511 1507 1505 1518 1520 1526 1521 1525 1515 1504 1478 1465 1466 1466 1469 1473 1473 1472 1472 1471 1469 1466 1464 1462 1460 1457 1459 1460 1461 1461 1464 1465 1467 1472 1476 1478 1479 1482 1485 1488 1489
1490 1498 1506 1503 1506 1507 1504 1510 1515 1516 1514 1517 1508 1483 1467 1467 1470 1473 1472 1469 1468 1470 1469 1469 1466 1463 1458 1455 1453 1454 1455 1455 1455 1456 1458 1460 1463 1466 1468 1470 1473 1476 1478 1480
1486 1492 1502 1505 1507 1504 1500 1500 1501 1501 1509 1503 1507 1467 1458 1465 1469 1471 1470 1467 1465 1465 1465 1464 1464 1462 1457 1454 1451 1451 1450 1449 1449 1450 1450 1452 1454 1457 1460 1464 1466 1467 1470 1471
1485 1487 1487 1483 1482 1486 1496 1497 1497 1499 1504 1490 1492 1465 1452 1462 1466 1470 1470 1468 1467 1465 1464 1463 1460 1459 1456 1453 1449 1448 1447 1446 1445 1445 1444 1445 1448 1450 1454 1456 1458 1460 1463 1464
1486 1488 1485 1483 1488 1492 1494 1498 1495 1494 1484 1491 1472 1472 1435 1465 1469 1469 1468 1466 1465 1465 1462 1458 1455 1454 1453 1450 1447 1444 1443 1442 1441 1440 1440 1440 1442 1445 1447 1449 1452 1454 1456 1457
1487 1489 1489 1496 1491 1494 1496 1494 1493 1497 1495 1491 1478 1474 1421 1469 1470 1466 1463 1465 1461 1458 1458 1454 1450 1448 1447 1446 1444 1442 1439 1437 1436 1435 1434 1435 1437 1439 1442 1444 1446 1448 1450 1451
1486 1491 1496 1491 1494 1497 1499 1478 1481 1480 1480 1478 1477 1449 1440 1463 1463 1459 1457 1460 1457 1453 1448 1442 1437 1434 1432 1434 1437 1437 1434 1433 1431 1430 1430 1431 1433 1435 1437 1440 1441 1443 1444 1446
1488 1492 1494 1489 1499 1491 1465 1469 1469 1470 1467 1470 1466 1445 1436 1460 1454 1449 1452 1450 1446 1442 1437 1429 1425 1426 1428 1424 1425 1429 1427 1427 1427 1426 1426 1427 1428 1430 1431 1433 1435 1437 1438 1441
1487 1491 1493 1494 1490 1477 1465 1466 1469 1470 1461 1462 1454 1444 1446 1452 1445 1427 1445 1438 1433 1432 1430 1426 1423 1420 1420 1417 1418 1420 1419 1418 1419 1420 1421 1421 1423 1425 1425 1426 1428 1429 1431 1433
1486 1487 1492 1496 1488 1480 1447 1455 1459 1464 1456 1451 1449 1441 1438 1442 1437 1406 1432 1432 1431 1429 1426 1421 1417 1414 1410 1409 1410 1409 1409 1409 1408 1410 1412 1415 1416 1418 1419 1420 1419 1422 1424 1427
1486 1488 1483 1482 1484 1471 1457 1458 1461 1468 1435 1439 1442 1438 1436 1436 1431 1412 1428 1425 1424 1421 1416 1413 1408 1401 1399 1400 1399 1396 1397 1395 1398 1403 1405 1406 1406 1408 1411 1413 1413 1415 1417 1419
1471 1479 1476 1480 1487 1474 1447 1454 1453 1440 1434 1442 1443 1438 1434 1429 1423 1414 1420 1414 1417 1413 1406 1402 1397 1392 1388 1388 1388 1385 1381 1385 1389 1390 1393 1395 1397 1398 1401 1405 1405 1406 1411 1413
1464 1454 1459 1461 1453 1437 1439 1440 1442 1441 1436 1441 1442 1437 1431 1421 1416 1416 1406 1405 1402 1399 1398 1395 1392 1383 1377 1374 1375 1373 1370 1375 1378 1379 1381 1384 1387 1390 1393 1394 1397 1398 1401 1405
1451 1451 1451 1451 1441 1434 1431 1441 1442 1442 1438 1437 1439 1436 1432 1422 1414 1407 1403 1395 1392 1389 1385 1384 1383 1375 1367 1365 1362 1360 1362 1363 1366 1369 1371 1374 1377 1381 1385 1389 1391 1392 1394 1396
1450 1451 1447 1444 1435 1437 1425 1439 1441 1441 1440 1435 1434 1434 1430 1423 1409 1408 1397 1393 1386 1381 1376 1374 1370 1365 1358 1356 1354 1351 1351 1353 1354 1360 1364 1366 1367 1372 1376 1381 1384 1387 1390 1395
1459 1458 1450 1437 1456 1453 1431 1436 1440 1436 1432 1429 1424 1415 1420 1418 1408 1402 1390 1386 1380 1372 1368 1362 1359 1356 1350 1346 1345 1344 1342 1344 1345 1347 1353 1358 1361 1363 1367 1372 1377 1383 1388 1392